Location: �terpigny
(49.8910°N, 2.9249°E)
Time: 07:31:54
(UTC+00:00)

Gurwin Techsat 1B - Pass Details

Date: 07 July 2022
Orbit: 812 x 813 km, 98.8° (Epoch: 14 August)

Event Time Altitude Azimuth Distance (km) Brightness Sun altitude
Rises 03:01:08 0° 12° (NNE) 3,349 13.0 -6.4°
Reaches altitude 10° 03:03:30 10° 9° (N) 2,413 12.1 -6.2°
Maximum altitude 03:08:44 60° 291° (WNW) 930 8.9 -5.6°
Drops below altitude 10° 03:13:57 10° 212° (SSW) 2,396 10.4 -5.0°
Enters shadow 03:15:08 - 210° (SSW) 2,862 10.8 -4.9°
